Precipitable_Water
1.29 1.51 1.64 1.59 1.52 1.49 1.44 1.42 1.41 1.43 1.45 1.49 1.51 1.50 1.51 1.48 1.51 1.48 1.45 1.45 1.47 1.45 1.39 1.35 1.37 1.48 1.56 1.63 1.65 1.56 1.46 1.23 1.07 1.01 1.30 1.38 1.36 1.30 1.28 1.14 1.06 1.02 1.04
1.37 1.49 1.54 1.48 1.47 1.41 1.39 1.38 1.37 1.37 1.38 1.38 1.39 1.40 1.40 1.43 1.46 1.49 1.60 1.63 1.65 1.68 1.64 1.56 1.47 1.45 1.42 1.39 1.44 1.52 1.54 1.49 1.32 1.13 1.01 1.10 1.26 1.25 1.31 1.22 1.21 1.12 1.13
1.28 1.36 1.39 1.35 1.33 1.29 1.30 1.29 1.26 1.27 1.29 1.31 1.34 1.36 1.40 1.46 1.52 1.57 1.63 1.59 1.59 1.57 1.63 1.57 1.51 1.44 1.43 1.41 1.36 1.39 1.45 1.47 1.45 1.35 1.13 1.09 1.03 1.07 1.21 1.27 1.28 1.38 1.35
1.20 1.23 1.24 1.21 1.12 1.08 1.09 1.08 1.06 1.07 1.09 1.08 1.09 1.11 1.14 1.16 1.19 1.23 1.30 1.35 1.38 1.42 1.43 1.44 1.42 1.42 1.44 1.45 1.44 1.45 1.41 1.30 1.35 1.45 1.39 1.12 1.15 1.18 1.32 1.51 1.58 1.51 1.58
1.06 1.10 1.08 1.01 0.94 0.86 0.81 0.77 0.74 0.72 0.72 0.71 0.71 0.73 0.76 0.81 0.84 0.87 0.91 1.03 1.13 1.21 1.27 1.30 1.29 1.32 1.36 1.35 1.33 1.37 1.39 1.38 1.32 1.37 1.37 1.34 1.14 1.23 1.34 1.41 1.67 1.77 1.68
0.91 0.96 0.93 0.87 0.79 0.70 0.59 0.53 0.52 0.50 0.52 0.54 0.53 0.55 0.57 0.60 0.61 0.62 0.63 0.72 0.80 0.87 0.95 1.00 1.01 1.04 1.12 1.22 1.29 1.30 1.30 1.24 1.24 1.24 1.24 1.26 1.30 1.16 1.28 1.37 1.43 1.51 1.49
0.79 0.83 0.81 0.71 0.56 0.52 0.50 0.50 0.52 0.53 0.55 0.57 0.57 0.57 0.57 0.56 0.55 0.56 0.56 0.57 0.60 0.62 0.64 0.67 0.73 0.80 0.87 0.94 1.02 1.11 1.13 1.13 1.19 1.13 1.14 1.18 1.19 1.26 1.31 1.30 1.37 1.48 1.51
0.70 0.66 0.56 0.52 0.49 0.49 0.50 0.53 0.55 0.58 0.59 0.59 0.59 0.59 0.58 0.59 0.60 0.59 0.58 0.59 0.59 0.56 0.55 0.57 0.60 0.61 0.64 0.71 0.79 0.85 0.88 0.93 1.01 1.08 1.12 1.14 1.15 1.18 1.24 1.31 1.35 1.38 1.45
0.65 0.54 0.50 0.47 0.45 0.46 0.51 0.53 0.56 0.57 0.59 0.60 0.60 0.59 0.58 0.59 0.61 0.64 0.64 0.66 0.67 0.68 0.68 0.67 0.64 0.61 0.59 0.59 0.58 0.58 0.60 0.65 0.75 0.89 1.02 1.11 1.17 1.21 1.24 1.24 1.26 1.31 1.37
0.59 0.51 0.48 0.47 0.45 0.46 0.49 0.53 0.54 0.56 0.57 0.59 0.59 0.58 0.57 0.56 0.57 0.59 0.61 0.65 0.65 0.65 0.66 0.66 0.65 0.63 0.60 0.60 0.60 0.60 0.58 0.56 0.59 0.64 0.75 0.88 0.99 1.07 1.14 1.21 1.23 1.24 1.27
0.52 0.51 0.49 0.45 0.45 0.47 0.49 0.50 0.51 0.54 0.55 0.56 0.56 0.56 0.55 0.55 0.55 0.56 0.58 0.59 0.60 0.59 0.60 0.61 0.60 0.58 0.56 0.55 0.55 0.55 0.54 0.54 0.56 0.60 0.65 0.70 0.76 0.83 0.89 1.01 1.09 1.15 1.19
0.47 0.49 0.47 0.44 0.44 0.46 0.48 0.49 0.51 0.53 0.54 0.55 0.54 0.54 0.53 0.51 0.51 0.52 0.53 0.53 0.54 0.54 0.54 0.53 0.53 0.51 0.49 0.49 0.49 0.50 0.50 0.50 0.50 0.52 0.57 0.64 0.68 0.73 0.78 0.84 0.90 0.99 1.08
0.49 0.48 0.44 0.43 0.45 0.45 0.46 0.48 0.50 0.52 0.53 0.53 0.52 0.50 0.48 0.46 0.47 0.49 0.49 0.49 0.48 0.49 0.47 0.47 0.46 0.45 0.45 0.45 0.45 0.46 0.47 0.47 0.48 0.49 0.52 0.55 0.60 0.65 0.69 0.71 0.74 0.78 0.87
0.47 0.45 0.45 0.44 0.43 0.46 0.48 0.48 0.49 0.50 0.50 0.48 0.48 0.46 0.45 0.46 0.47 0.48 0.49 0.49 0.49 0.50 0.48 0.48 0.46 0.46 0.46 0.47 0.47 0.46 0.48 0.49 0.50 0.52 0.53 0.54 0.57 0.60 0.64 0.68 0.73 0.76 0.76
0.44 0.45 0.46 0.45 0.45 0.47 0.47 0.48 0.48 0.49 0.47 0.49 0.49 0.50 0.49 0.46 0.46 0.49 0.49 0.50 0.50 0.51 0.49 0.47 0.44 0.43 0.45 0.47 0.46 0.47 0.50 0.51 0.52 0.55 0.58 0.63 0.66 0.69 0.71 0.71 0.71 0.72 0.73
0.45 0.46 0.47 0.47 0.48 0.48 0.46 0.45 0.46 0.49 0.50 0.51 0.51 0.50 0.49 0.48 0.47 0.47 0.47 0.46 0.47 0.48 0.47 0.45 0.40 0.37 0.37 0.38 0.36 0.41 0.46 0.53 0.55 0.57 0.61 0.63 0.66 0.69 0.71 0.72 0.73 0.73 0.72
0.47 0.48 0.47 0.47 0.48 0.45 0.44 0.45 0.48 0.50 0.51 0.51 0.51 0.50 0.48 0.46 0.44 0.42 0.42 0.40 0.39 0.43 0.41 0.38 0.34 0.30 0.28 0.27 0.24 0.30 0.39 0.46 0.52 0.55 0.59 0.61 0.62 0.64 0.68 0.69 0.70 0.72 0.73
0.45 0.44 0.46 0.48 0.47 0.46 0.45 0.46 0.47 0.50 0.51 0.50 0.49 0.47 0.44 0.40 0.39 0.35 0.33 0.31 0.31 0.29 0.25 0.21 0.22 0.21 0.22 0.22 0.20 0.25 0.37 0.45 0.51 0.53 0.55 0.58 0.58 0.57 0.59 0.62 0.65 0.67 0.70
0.44 0.44 0.44 0.48 0.48 0.47 0.44 0.45 0.46 0.48 0.49 0.49 0.49 0.45 0.41 0.37 0.36 0.31 0.26 0.24 0.23 0.20 0.19 0.18 0.17 0.18 0.18 0.18 0.20 0.27 0.38 0.45 0.51 0.54 0.55 0.56 0.59 0.58 0.55 0.56 0.57 0.60 0.67
0.44 0.45 0.47 0.50 0.50 0.47 0.44 0.43 0.44 0.46 0.48 0.51 0.48 0.45 0.41 0.38 0.35 0.29 0.24 0.21 0.21 0.19 0.18 0.19 0.18 0.20 0.22 0.21 0.22 0.28 0.39 0.47 0.53 0.52 0.53 0.54 0.53 0.54 0.53 0.51 0.51 0.52 0.56
0.43 0.44 0.46 0.49 0.48 0.45 0.41 0.35 0.36 0.37 0.42 0.46 0.49 0.48 0.43 0.40 0.38 0.31 0.25 0.22 0.22 0.21 0.21 0.22 0.22 0.20 0.21 0.24 0.20 0.22 0.36 0.45 0.47 0.48 0.49 0.49 0.44 0.47 0.49 0.48 0.48 0.49 0.50
0.42 0.45 0.47 0.47 0.45 0.44 0.42 0.39 0.39 0.39 0.41 0.46 0.49 0.49 0.47 0.44 0.42 0.35 0.29 0.26 0.26 0.25 0.25 0.26 0.25 0.23 0.23 0.26 0.21 0.23 0.17 0.25 0.38 0.41 0.41 0.36 0.37 0.39 0.36 0.40 0.45 0.47 0.48
0.42 0.43 0.47 0.45 0.44 0.44 0.44 0.42 0.40 0.41 0.42 0.43 0.45 0.47 0.49 0.48 0.46 0.41 0.35 0.32 0.31 0.31 0.29 0.30 0.30 0.28 0.26 0.28 0.31 0.24 0.17 0.17 0.23 0.32 0.41 0.41 0.38 0.33 0.32 0.34 0.35 0.39 0.42
0.42 0.47 0.45 0.43 0.43 0.45 0.46 0.42 0.38 0.35 0.33 0.40 0.44 0.48 0.50 0.52 0.50 0.47 0.42 0.39 0.36 0.35 0.34 0.35 0.37 0.35 0.34 0.30 0.33 0.35 0.33 0.33 0.23 0.19 0.27 0.30 0.30 0.27 0.30 0.34 0.36 0.37 0.39
0.44 0.44 0.46 0.47 0.48 0.51 0.51 0.50 0.47 0.43 0.44 0.45 0.46 0.46 0.49 0.52 0.53 0.53 0.50 0.44 0.42 0.39 0.37 0.36 0.37 0.38 0.39 0.37 0.35 0.34 0.33 0.33 0.35 0.29 0.25 0.28 0.28 0.28 0.33 0.35 0.40 0.39 0.40
0.43 0.38 0.37 0.39 0.41 0.45 0.49 0.52 0.51 0.49 0.47 0.46 0.48 0.49 0.49 0.51 0.53 0.55 0.56 0.53 0.49 0.47 0.45 0.43 0.43 0.44 0.45 0.46 0.46 0.45 0.43 0.37 0.35 0.34 0.31 0.28 0.28 0.30 0.31 0.39 0.41 0.42 0.41
Wind_Speed
2 2 3 4 5 5 6 6 7 7 8 8 9 9 10 10 10 10 11 10 10 10 10 10 10 10 10 10 10 10 10 10 9 9 9 9 10 10 10 9 9 9 9
2 2 3 4 5 6 6 7 8 8 9 10 10 11 11 12 12 12 12 12 11 11 11 11 12 12 12 12 12 12 12 12 11 11 11 11 11 11 11 11 10 10 10
1 1 3 4 5 6 7 8 9 9 10 11 11 12 12 12 12 12 12 13 13 13 13 14 14 14 14 14 14 14 14 14 14 14 13 13 13 13 13 12 12 12 12
1 2 3 4 6 7 8 9 10 10 11 12 12 12 13 13 13 14 14 14 14 14 15 15 15 16 15 16 16 16 16 17 17 16 16 16 16 15 15 15 15 15 14
1 2 4 5 6 7 9 10 11 11 12 13 14 14 14 15 15 15 15 15 15 16 16 16 16 16 16 17 17 17 17 17 17 17 17 18 18 17 17 18 18 17 16
1 3 4 6 7 8 9 11 12 13 14 14 15 15 15 15 16 16 16 16 16 17 17 17 18 18 18 18 18 19 19 19 19 19 19 19 19 19 19 19 19 20 20
2 4 5 6 7 9 11 12 13 14 15 15 16 16 16 16 16 16 16 17 17 18 19 19 19 20 20 21 21 21 21 21 21 21 21 21 21 21 21 21 21 21 22
3 5 6 7 8 10 12 13 15 15 16 16 16 16 16 16 17 17 17 18 19 19 20 20 20 21 22 22 22 23 23 23 23 23 23 23 22 22 22 22 22 23 23
5 6 7 8 10 11 13 14 15 16 17 17 17 17 17 17 18 18 18 18 19 19 19 20 20 21 21 21 22 22 23 23 23 24 24 24 24 24 24 24 24 24 24
6 7 8 9 11 12 14 16 16 17 18 18 18 18 18 18 19 19 19 19 20 20 20 21 21 22 22 22 22 22 23 23 23 23 24 24 25 25 25 25 25 25 25
7 8 9 11 12 14 15 17 18 19 19 18 19 20 20 21 21 21 21 21 21 21 22 22 23 23 23 23 23 23 23 23 23 23 23 23 24 24 24 24 25 25 26
9 10 11 12 13 15 17 18 19 19 19 20 21 22 22 23 23 22 22 22 22 22 23 23 23 23 23 23 23 22 22 22 21 21 21 21 21 22 22 22 23 24 24
10 11 12 13 15 16 18 20 20 20 21 23 24 24 24 24 24 23 23 22 22 22 23 22 21 21 21 21 21 20 19 19 18 18 18 19 19 19 20 21 22 23 23
12 12 13 14 16 18 20 21 20 22 23 25 26 26 26 25 24 24 23 22 21 22 22 21 20 20 19 18 17 17 17 16 16 16 16 16 17 17 17 18 18 19 20
13 14 15 16 17 19 21 20 22 23 25 26 26 26 26 25 24 23 21 21 20 21 20 19 17 16 16 15 15 15 15 15 15 15 15 14 14 14 15 16 17 18 20
15 15 16 17 18 20 21 21 23 24 25 23 23 24 23 22 21 19 18 18 19 18 15 16 15 15 15 15 15 15 15 14 14 13 13 13 14 14 15 15 16 17 18
16 16 16 17 19 21 21 23 23 23 21 21 21 22 20 17 15 14 15 16 15 15 15 15 14 14 14 15 15 15 14 14 13 12 13 13 13 14 15 16 16 17 18
16 16 17 18 20 22 22 22 22 20 18 19 19 18 17 15 13 13 14 14 14 15 15 14 14 15 15 16 16 15 14 14 13 13 13 14 14 15 16 16 17 18 18
17 17 18 20 21 22 21 21 20 17 17 17 17 16 16 14 13 13 13 14 14 15 15 15 15 16 16 17 16 15 15 14 14 15 15 15 15 16 17 18 18 19 20
18 18 20 21 23 21 21 20 19 16 15 15 16 16 15 14 14 13 14 15 15 15 16 16 17 17 17 18 17 17 16 16 16 17 17 17 18 18 19 20 20 21 22
19 20 22 23 23 22 20 20 19 17 16 16 16 16 16 15 15 15 15 16 16 17 17 18 18 18 18 19 19 19 18 18 18 19 19 20 21 21 22 22 23 24 24
20 21 23 24 23 22 21 22 21 18 18 18 18 18 18 17 17 17 18 18 18 18 18 19 19 20 19 19 19 20 20 20 21 21 22 23 23 24 24 25 25 26 27
21 22 23 23 23 22 22 22 21 20 20 19 19 19 19 19 19 19 19 20 20 20 20 21 21 20 20 21 21 20 21 21 24 23 24 25 26 26 27 28 28 28 29
21 22 23 23 23 23 23 24 22 21 20 19 19 19 19 20 20 20 21 21 22 22 22 22 22 22 23 23 23 23 24 24 24 25 25 27 28 29 30 29 30 30 31
21 22 23 24 25 25 25 24 23 22 22 22 22 22 22 22 23 23 23 24 24 24 25 25 25 25 26 26 26 26 26 27 28 28 28 28 31 31 31 32 31 32 33
21 22 23 23 25 25 25 24 23 23 23 23 23 24 25 25 25 25 26 26 27 27 28 28 29 29 29 29 29 29 29 29 29 30 30 31 32 32 35 33 33 34 34
Wind_Direction
88 60 47 27 15 6 360 354 350 346 341 339 336 334 330 329 327 326 326 325 324 324 323 321 320 320 320 316 315 315 316 314 309 301 296 295 293 291 289 287 286 281 280
124 74 31 14 6 359 354 351 347 341 337 333 330 327 323 322 320 318 317 315 314 313 314 314 313 311 310 309 307 305 305 305 303 300 296 291 289 289 288 284 281 280 281
136 28 0 357 354 352 349 345 341 338 334 330 328 326 324 323 322 320 317 316 310 308 305 306 305 304 302 301 300 299 298 297 295 294 292 289 287 285 284 281 278 277 277
133 355 352 349 349 347 343 340 337 335 333 330 328 325 322 320 317 314 312 312 310 307 304 303 304 304 302 300 298 297 296 294 291 288 288 286 283 281 281 279 277 273 276
357 340 341 341 341 341 340 339 336 333 329 326 323 321 318 316 314 311 309 308 306 304 303 302 302 301 300 298 296 296 296 295 293 288 286 285 282 279 277 278 282 269 273
326 329 330 333 334 337 337 335 332 329 326 324 322 319 317 316 314 312 309 307 305 303 301 300 299 298 297 296 295 294 292 292 290 287 285 283 282 279 277 276 278 270 271
315 329 325 326 330 331 332 332 330 328 326 324 322 320 318 316 315 314 310 307 304 302 301 300 299 297 295 294 292 291 291 289 288 286 284 282 281 279 278 276 274 274 271
305 321 324 324 325 327 329 329 329 327 325 324 322 320 318 316 314 313 311 308 306 303 301 300 299 297 295 293 291 290 289 288 286 284 283 281 280 280 278 277 275 274 273
305 317 321 322 324 325 326 327 327 325 323 322 321 319 317 315 313 312 310 309 308 306 304 302 300 299 297 295 293 292 290 289 286 284 282 281 280 279 278 277 277 276 273
301 312 315 319 322 324 325 326 325 324 322 320 319 317 315 313 312 310 309 308 307 305 304 303 301 299 298 296 295 294 292 291 289 287 284 281 280 279 278 277 276 276 275
296 306 312 316 320 322 323 323 323 321 320 318 316 315 312 311 309 307 306 306 305 305 304 302 301 299 298 296 295 294 293 292 291 288 286 283 281 280 280 278 277 277 275
291 301 307 312 317 320 321 322 322 320 319 317 315 313 310 308 306 304 304 305 304 305 304 304 302 300 299 298 297 296 294 293 292 291 289 287 285 284 282 281 280 278 277
289 297 304 310 315 318 319 320 319 318 317 315 313 311 308 306 304 303 303 304 306 307 307 305 303 303 302 301 300 299 298 297 295 294 293 291 288 287 285 284 283 281 280
286 294 301 307 312 315 318 318 317 317 316 315 313 310 308 305 303 301 302 304 307 308 308 307 306 305 306 306 304 302 301 300 300 299 298 297 294 293 291 290 288 287 285
283 291 299 305 309 314 317 317 317 317 317 315 313 311 308 304 301 300 302 305 307 309 309 309 311 310 311 310 310 308 306 305 303 302 301 301 301 299 298 296 294 292 291
282 290 297 303 308 313 315 315 316 316 317 318 320 320 315 308 304 303 304 307 310 312 313 313 312 312 312 312 311 309 308 308 306 304 303 301 302 302 302 301 300 298 297
282 290 295 301 308 312 313 314 315 317 318 321 324 326 326 321 317 312 310 312 314 315 317 316 315 314 311 312 311 307 306 306 306 305 304 303 304 304 305 304 303 302 301
281 288 294 302 307 311 311 313 315 315 317 322 327 331 332 330 325 319 316 316 317 316 317 315 313 312 311 312 310 306 303 302 301 302 302 302 302 303 304 306 304 304 303
279 285 293 301 306 308 309 311 314 313 316 320 326 331 333 331 326 322 319 318 317 315 315 312 311 311 310 310 308 303 300 298 298 299 300 301 301 302 304 305 304 304 303
277 285 293 300 304 305 306 307 311 308 314 318 324 327 328 327 325 322 318 316 315 312 311 310 309 308 307 309 304 301 296 295 295 296 297 298 300 301 302 302 303 303 303
277 284 292 299 301 301 301 302 305 299 305 310 315 319 320 318 317 315 313 313 313 311 310 310 309 307 304 306 301 298 293 291 291 292 293 294 296 297 298 299 300 300 300
277 284 292 297 298 297 298 299 298 292 297 301 305 308 309 309 309 309 309 309 308 308 308 308 308 306 302 304 300 295 294 292 289 289 290 293 295 295 295 296 296 298 299
279 286 292 295 295 295 296 297 294 288 292 297 301 304 306 306 306 305 304 304 305 304 304 304 304 303 301 300 300 296 294 291 294 291 289 291 293 294 295 294 295 296 298
282 288 292 294 294 294 294 294 290 285 287 292 297 300 303 304 305 305 303 303 303 303 303 302 302 301 300 299 298 295 293 291 292 291 290 290 292 294 295 295 294 295 297
287 291 293 294 294 293 292 291 287 282 285 289 292 295 297 299 300 302 301 300 300 299 299 299 299 298 297 297 295 295 294 292 290 290 291 290 292 293 292 294 292 294 296
291 294 296 296 294 294 292 290 284 281 284 288 292 294 294 296 297 299 299 299 298 298 297 297 297 296 296 295 295 294 293 292 292 291 291 292 292 291 295 292 291 292 294